Content
SEND FEEDBACK

Daily
Averages
Monthly
Summary
United States of America

SNYDER, TEXAS


Home > North America > United States > Texas
Elevation: 2427 feet     Latitude: 32 41N     Longitude: 100 57W

WEATHER
 
SELECT A DAY
Number of Records: 266,342;   Date Range: 7/8/03 - 7/7/14
 
SHARE

PRINT THIS DATA

[ ← Previous Day ]
WEATHER ALMANAC - FEBRUARY 18, 2013
[ Next Day → ]
[ °C ]   °F
Weather ElementAverageHighLow
Temperature53.1 °F59.7 °F (2:55 pm)42.4 °F (11:55 pm)
Dewpoint29.7 °F46.8 °F (3:35 am)14.5 °F (10:15 am)
Humidity46.2 %91 % (7:15 am)19 % (10:15 am)
Barometer29.94 in30.13 in (10:55 pm)29.76 in (2:35 am)
Wind Speed12.9 mph24.2 mph (1:35 am)
Wind Gust31.1 mph (1:55 pm)
Weather ElementAverage
Visibility10 mi
Wind DirectionSSW (208.1 °)

Weather ElementTotal
Precipitation---
Heating Degree Days14 (Base 65)
Growing Degree Days1.1 (Base 50)
Averaged from 69 records on February 18, 2013
WEATHER CONDITIONS BREAKOUT
WIND DIRECTION BREAKOUT
WEATHER BY HOUR - FEBRUARY 18, 2013
[ °C ]   °F
Local TimeTemperatureDewpointHumidityBarometerVisibilityWind DirectionWind SpeedGust SpeedPrecipitationEventsConditions
12:35 AM54.7 °F41.7 °F62 %29.77 in10.0 miSouth (180°)19.6 mph25.3 mphClear
12:55 AM54.5 °F41.9 °F62 %29.77 in10.0 miSouth (180°)20.7 mph26.5 mphClear
1:15 AM54.5 °F42.4 °F64 %29.77 in10.0 miSouth (180°)19.6 mph24.2 mphClear
1:35 AM55.0 °F43.2 °F64 %29.77 in10.0 miSouth (180°)24.2 mph28.8 mphClear
1:55 AM55.2 °F43.7 °F65 %29.77 in10.0 miSouth (180°)19.6 mph26.5 mphClear
2:15 AM54.5 °F43.7 °F67 %29.77 in10.0 miSouth (180°)17.3 mph21.9 mphClear
2:35 AM54.5 °F44.4 °F69 %29.76 in10.0 miSouth (180°)17.3 mphClear
3:15 AM54.5 °F46.0 °F73 %29.76 in10.0 miSouth (180°)15.0 mphClear
3:35 AM54.5 °F46.8 °F75 %29.77 in10.0 miSouth (180°)13.8 mphClear
3:55 AM53.4 °F46.6 °F78 %29.77 in10.0 miSSW (200°)12.7 mph17.3 mphClear
4:15 AM51.8 °F45.9 °F80 %29.77 in10.0 miSouth (190°)10.4 mphClear
4:35 AM51.8 °F46.4 °F82 %29.77 in10.0 miSouth (190°)12.7 mphClear
4:55 AM51.8 °F46.8 °F83 %29.76 in10.0 miSouth (180°)12.7 mph18.4 mphClear
5:15 AM51.1 °F46.6 °F85 %29.77 in10.0 miSouth (180°)11.5 mphClear
5:35 AM49.8 °F45.9 °F86 %29.77 in10.0 miSouth (190°)9.2 mphClear
6:15 AM49.3 °F46.4 °F90 %29.79 in10.0 miSSW (200°)9.2 mphClear
6:35 AM47.3 °F44.4 °F90 %29.80 in10.0 miSW (230°)6.9 mphClear
6:55 AM45.7 °F43.0 °F90 %29.81 in10.0 miSW (230°)8.1 mphClear
7:15 AM44.2 °F41.7 °F91 %29.82 in10.0 miSW (220°)10.4 mphClear
7:35 AM45.1 °F41.4 °F87 %29.83 in10.0 miSW (230°)9.2 mphClear
7:55 AM43.5 °F39.6 °F86 %29.84 in10.0 miSW (230°)10.4 mphClear
8:15 AM45.1 °F40.5 °F84 %29.85 in10.0 miWSW (240°)11.5 mphClear
8:35 AM47.7 °F41.7 °F80 %29.86 in10.0 miSW (230°)13.8 mphClear
8:55 AM50.0 °F37.9 °F63 %29.87 in10.0 miWSW (240°)17.3 mphClear
9:15 AM53.4 °F33.3 °F46 %29.89 in10.0 miWSW (250°)17.3 mph24.2 mphClear
9:35 AM54.5 °F27.7 °F36 %29.88 in10.0 miWest (260°)21.9 mph26.5 mphClear
9:55 AM56.1 °F18.5 °F23 %29.90 in10.0 miWest (280°)21.9 mph27.6 mphClear
10:15 AM56.8 °F14.5 °F19 %29.91 in10.0 miWNW (290°)20.7 mph26.5 mphClear
10:35 AM56.8 °F16.2 °F20 %29.92 in10.0 miWNW (290°)16.1 mph25.3 mphClear
10:55 AM56.8 °F16.5 °F21 %29.93 in10.0 miNW (310°)13.8 mph20.7 mphClear
11:15 AM56.8 °F16.9 °F21 %29.94 in10.0 miNW (310°)15.0 mphClear
11:35 AM56.8 °F18.3 °F22 %29.95 in10.0 miWNW (300°)17.3 mph24.2 mphClear
11:55 AM57.7 °F20.5 °F24 %29.96 in10.0 miNW (310°)15.0 mphClear
12:15 PM57.7 °F21.6 °F25 %29.97 in10.0 miWNW (300°)15.0 mph25.3 mphClear
12:35 PM57.2 °F22.5 °F26 %29.97 in10.0 miWNW (300°)16.1 mph24.2 mphClear
12:55 PM58.6 °F22.6 °F25 %29.97 in10.0 miWNW (290°)19.6 mph24.2 mphClear
1:15 PM59.0 °F23.0 °F25 %29.98 in10.0 miWNW (290°)13.8 mph25.3 mphClear
1:35 PM59.0 °F24.1 °F26 %29.98 in10.0 miWNW (300°)15.0 mph20.7 mphClear
1:55 PM59.0 °F24.1 °F26 %29.98 in10.0 miNW (310°)18.4 mph31.1 mphClear
2:15 PM59.4 °F24.3 °F26 %29.98 in10.0 miWNW (290°)12.7 mph28.8 mphClear
2:35 PM59.4 °F23.7 °F25 %29.98 in10.0 miWNW (300°)17.3 mph25.3 mphClear
2:55 PM59.7 °F22.8 °F24 %29.99 in10.0 miWNW (290°)19.6 mph26.5 mphClear
3:15 PM59.4 °F22.8 °F25 %29.99 in10.0 miWNW (300°)17.3 mphClear
3:35 PM59.4 °F23.0 °F25 %30.00 in10.0 miNW (320°)11.5 mph18.4 mphClear
3:55 PM59.4 °F22.8 °F25 %30.00 in10.0 miNW (310°)17.3 mph24.2 mphClear
4:15 PM59.4 °F22.8 °F25 %30.01 in10.0 miNW (310°)15.0 mph23.0 mphClear
4:35 PM59.4 °F23.5 °F25 %30.01 in10.0 miWNW (300°)12.7 mph19.6 mphClear
4:55 PM59.4 °F23.5 °F25 %30.02 in10.0 miNW (320°)13.8 mphClear
5:15 PM59.4 °F23.4 °F25 %30.03 in10.0 miNW (320°)8.1 mph19.6 mphClear
5:35 PM58.1 °F22.3 °F25 %30.04 in10.0 miNW (310°)10.4 mphClear
5:55 PM56.8 °F21.6 °F25 %30.05 in10.0 miNW (320°)10.4 mphClear
6:15 PM56.8 °F21.6 °F25 %30.05 in10.0 miNW (320°)8.1 mphClear
6:35 PM55.4 °F21.4 °F27 %30.06 in10.0 miNNW (340°)8.1 mphClear
6:55 PM54.5 °F22.1 °F28 %30.06 in10.0 miNorth (350°)9.2 mphClear
7:15 PM53.4 °F21.7 °F29 %30.07 in10.0 miNorth (10°)5.8 mphClear
7:35 PM51.1 °F21.9 °F32 %30.08 in10.0 miNorth (10°)9.2 mphClear
7:55 PM49.6 °F21.9 °F34 %30.08 in10.0 miNorth (10°)10.4 mphClear
8:15 PM49.3 °F22.1 °F34 %30.08 in10.0 miNorth (10°)10.4 mphClear
8:35 PM49.3 °F22.8 °F35 %30.09 in10.0 miNNE (20°)8.1 mphClear
8:55 PM49.3 °F23.7 °F37 %30.09 in10.0 miNNE (30°)9.2 mphClear
9:15 PM49.3 °F24.1 °F37 %30.10 in10.0 miNE (40°)6.9 mphClear
9:35 PM47.8 °F23.7 °F39 %30.10 in10.0 miNNE (20°)6.9 mphClear
9:55 PM46.8 °F23.5 °F40 %30.11 in10.0 miNNE (20°)8.1 mphClear
10:15 PM46.4 °F23.0 °F40 %30.12 in10.0 miNE (40°)5.8 mphClear
10:35 PM45.5 °F22.5 °F40 %30.12 in10.0 miENE (60°)5.8 mphClear
10:55 PM43.7 °F21.9 °F42 %30.13 in10.0 miENE (70°)5.8 mphClear
11:15 PM43.0 °F21.9 °F43 %30.13 in10.0 miNE (40°)5.8 mphClear
11:35 PM42.8 °F21.6 °F43 %30.13 in10.0 miNE (50°)5.8 mphClear
11:55 PM42.4 °F21.4 °F43 %30.13 in10.0 miNE (40°)5.8 mphClear
Hourly data recorded from KSNK, located miles away from Snyder, Texas







STORIES FROM OUR PARTNERS